# Land Stadt Wetter Temperatur Luftdruck Luftfeuchtigkeit Sichtweite Windgeschwindigkeit Windrichtung Ortszeit
1 au Sydney Clear 13 1015 44 10000 15 280 02.08.2018 14:22
2 ru Jakutsk Clear -3 1023 43 10000 14 290 02.08.2018 14:22
3 iq Bagdad Clear 37 1011 16 10000 19 320 02.08.2018 14:22
4 us Nome Clear 2 1024 55 10000 13 40 02.08.2018 14:23
5 us Fairbanks Clear -2 1026 63 10000 11 60 02.08.2018 14:23
6 de Trier Clear 11 1023 40 10000 6 320 02.08.2018 14:21
7 no Oslo Clear 8 1011 37 10000 10 312 02.08.2018 14:23
8 ru Anadyr Clear -8 1025 93 10000 22 10 02.08.2018 14:23
9 au Alice Springs Clear 16 1021 33 10000 11 150 02.08.2018 14:21
10 qa Doha Clear 37 1010 14 10000 17 110 02.08.2018 14:23
11 uy Montevideo Clear 18 1018 82 10000 33 50 02.08.2018 14:22
12 de Hiddensee Clear 11 1020 53 10000 5 337 02.08.2018 14:21
13 au Perth Clear 21 1021 46 10000 13 140 02.08.2018 14:21
14 tr Alanya Clear 27 1020 6 10000 11 360 02.08.2018 14:22
15 bo Potisi Clear 5 1017 63 10000 5 292 02.08.2018 14:22
16 eg Kairo Clear 26 1018 34 10000 24 360 02.08.2018 14:22
17 bs Nassau Clear 22 1016 94 10000 4 0 02.08.2018 14:22
18 fr Paris Clear 14 1023 47 10000 19 30 02.08.2018 14:22
19 de Frankfurt Clear 11 1023 43 10000 7 0 02.08.2018 14:22
20 za Kapstadt Clear 23 1015 60 10000 13 310 02.08.2018 14:22
21 kr Seoul Clear 21 1017 45 10000 6 60 02.08.2018 14:21
22 it Palermo Clear 20 1014 77 10000 15 40 02.08.2018 14:22
23 fr Bordeaux Clear 20 1016 42 10000 22 100 02.08.2018 14:21
24 sa Riad Clear 39 1013 5 10000 17 190 02.08.2018 14:21
25 mx Veracruz Clear 23 1014 83 9656 5 337 02.08.2018 14:21
26 it Rom Clear 15 1017 63 10000 7 110 02.08.2018 14:23
27 ae Dubai Clear 37 1010 13 10000 20 320 02.08.2018 14:21
28 jp Nagasaki Clear 20 1016 49 10000 6 350 02.08.2018 14:21
29 ma Marrakesch Clear 24 1014 43 10000 9 40 02.08.2018 14:23
30 af Kabul Clear 19 1019 20 10000 22 360 02.08.2018 14:21
31 us Tucson Clear 15 1011 19 10000 8 168 02.08.2018 14:21
32 ru Surgut Clear 6 1039 33 10000 18 200 02.08.2018 14:23
33 fi Helsinki Clear 11 1003 37 10000 26 190 02.08.2018 14:21
34 de Nürnberg Clear 11 1022 40 10000 19 300 02.08.2018 14:21
35 de Helgoland Clouds 8 1023 61 10000 39 320 02.08.2018 14:22
36 mn Ulaanbaatar Clouds 7 1017 31 10000 29 330 02.08.2018 14:23
37 es Barcelona Clouds 15 1018 63 10000 22 70 02.08.2018 14:22
38 ca Montreal Clouds -3 1004 68 10000 6 20 02.08.2018 14:22
39 mn Uliastai Clouds 3 1016 88 10000 2 301 02.08.2018 14:23
40 de Torfhaus Clouds 9 1022 40 10000 3 105 02.08.2018 14:22
41 es Palma de Mallorca Clouds 17 1016 67 10000 11 50 02.08.2018 14:22
42 us Death Valley Clouds 9 1006 26 10000 6 324 02.08.2018 14:22
43 br Rio de Janeiro Clouds 23 1015 88 10000 6 310 02.08.2018 14:22
44 jp Tokio Clouds 14 1020 77 10000 37 60 02.08.2018 14:22
45 ru Moskau Clouds 14 1013 58 10000 22 210 02.08.2018 14:22
46 gl Nuuk Clouds 1 1008 69 10000 2 0 02.08.2018 14:22
47 ru Werchojansk Clouds -11 1021 83 10000 1 173 02.08.2018 14:22
48 in Jagatsukh Clouds 9 1017 96 1225 10 222 02.08.2018 14:22
49 pt Lissabon Clouds 18 1014 55 10000 7 160 02.08.2018 14:22
50 ru Amderma Clouds 3 1016 80 10000 34 200 02.08.2018 14:23
51 et Addis Abeba Clouds 22 1025 40 10000 11 130 02.08.2018 14:23
52 mv Male Clouds 31 1010 74 10000 20 260 02.08.2018 14:23
53 ch Andermatt Clouds 7 1019 41 10000 26 50 02.08.2018 14:23
54 ch Bern Clouds 15 1019 48 10000 13 350 02.08.2018 14:23
55 at Innsbruck Clouds 13 1019 50 10000 13 70 02.08.2018 14:23
56 us Chicago Clouds 0 1019 74 10000 9 290 02.08.2018 14:23
57 nz Wellington Clouds 15 1009 82 10000 26 360 02.08.2018 14:23
58 cd Kisangani Clouds 30 1008 60 10000 7 93 02.08.2018 14:23
59 ma Casablanca Clouds 20 1016 52 10000 7 340 02.08.2018 14:23
60 es Madrid Clouds 14 1014 67 10000 2 0 02.08.2018 14:23
61 gr Athen Clouds 21 1021 28 10000 19 180 02.08.2018 14:22
62 cn Lhasa Clouds 14 998 15 10000 35 214 02.08.2018 14:22
63 no Hammerfest Clouds 2 1007 64 10000 6 0 02.08.2018 14:22
64 tr Istanbul Clouds 16 1023 72 10000 15 250 02.08.2018 14:23
65 us Miami Clouds 22 1017 64 10000 9 0 02.08.2018 14:23
66 id Jakarta Clouds 30 1009 58 6000 15 10 02.08.2018 14:22
67 au Darwin Clouds 29 1010 74 10000 7 260 02.08.2018 14:22
68 tr Ankara Clouds 16 1021 29 10000 17 290 02.08.2018 14:23
69 pe Cusco Clouds 3 1033 87 10000 6 100 02.08.2018 14:23
70 es Sevilla Clouds 22 1014 56 10000 6 0 02.08.2018 14:22
71 ie Dublin Clouds 12 1026 58 10000 15 150 02.08.2018 14:21
72 ph Manila Clouds 29 1005 79 10000 22 250 02.08.2018 14:21
73 de Berlin Clouds 12 1018 50 10000 32 280 02.08.2018 14:21
74 fj Suva Clouds 25 1013 94 10000 11 91 02.08.2018 14:21
75 de Hamburg Clouds 9 1020 50 10000 33 300 02.08.2018 14:21
76 de München Clouds 12 1020 66 10000 17 330 02.08.2018 14:21
77 mg Antananarivo Clouds 24 1021 60 10000 20 110 02.08.2018 14:21
78 bg Warna Clouds 17 1020 37 10000 24 120 02.08.2018 14:21
79 bg Sofia Clouds 18 1020 29 10000 6 0 02.08.2018 14:21
80 fi Rovaniemi Clouds 6 1001 49 10000 7 360 02.08.2018 14:21
81 gb Glasgow Clouds 13 1027 54 10000 19 220 02.08.2018 14:21
82 gb Manchester Clouds 12 1028 40 10000 6 0 02.08.2018 14:21
83 de Köln Clouds 10 1025 46 10000 13 0 02.08.2018 14:21
84 es Las Palmas de Gran Canaria Clouds 22 1017 64 10000 22 60 02.08.2018 14:21
85 mx Mexiko Stadt Clouds 13 1026 71 10000 4 60 02.08.2018 14:21
86 ua Kiew Clouds 15 1015 62 9000 18 200 02.08.2018 14:21
87 de Kassel Clouds 8 1023 49 10000 20 310 02.08.2018 14:21
88 us Las Vegas Clouds 15 1007 36 10000 6 160 02.08.2018 14:21
89 de Hannover Clouds 11 1023 53 10000 33 300 02.08.2018 14:21
90 de Oberstdorf Clouds 12 1019 58 7563 2 157 02.08.2018 14:21
91 us Denver Clouds -2 1004 90 10000 8 343 02.08.2018 14:21
92 th Bangkok Clouds 32 1004 66 10000 15 194 02.08.2018 14:21
93 do Santo Domingo Clouds 24 1015 88 10000 7 50 02.08.2018 14:21
94 es Tarifa Clouds 19 1015 72 10000 13 230 02.08.2018 14:21
95 de Braunschweig Clouds 10 1021 49 10000 26 290 02.08.2018 14:21
96 de Flensburg Clouds 8 1019 61 10000 56 320 02.08.2018 14:21
97 de Emden Clouds 9 1025 66 10000 13 338 02.08.2018 14:21
98 de Bremen Clouds 10 1023 53 10000 33 330 02.08.2018 14:22
99 us Honolulu Clouds 22 1018 73 10000 18 67 02.08.2018 14:22
100 de Stuttgart Clouds 13 1022 41 10000 11 320 02.08.2018 14:22
101 ec San Cristobal Clouds 24 1010 88 10000 13 132 02.08.2018 14:22
102 bo La Paz Clouds 3 1037 75 10000 4 0 02.08.2018 14:22
103 ar Esquel Clouds 2 1014 100 10000 7 300 02.08.2018 14:22
104 de Magdeburg Clouds 12 1021 46 10000 3 285 02.08.2018 14:22
105 us Los Angeles Clouds 13 1013 67 10000 5 212 02.08.2018 14:22
106 gb London Clouds 12 1028 50 10000 20 90 02.08.2018 14:22
107 us New York Clouds 2 1011 52 10000 7 0 02.08.2018 14:22
108 fr Nizza Clouds 16 1019 63 10000 13 100 02.08.2018 14:22
109 sb Honiara Clouds 26 1011 89 10000 9 123 02.08.2018 14:22
110 de Dresden Clouds 8 1020 49 10000 24 290 02.08.2018 14:22
111 de Freiburg Clouds 14 1018 69 10000 11 230 02.08.2018 14:22
112 ad Andorra la Vella Clouds 9 1016 54 10000 11 0 02.08.2018 14:22
113 cn Shanghai Clouds 20 1010 88 10000 14 160 02.08.2018 14:21
114 vn Hanoi Clouds 29 1005 79 10000 19 120 02.08.2018 14:21
115 it Mailand Clouds 18 1019 55 10000 7 0 02.08.2018 14:21
116 pg Port Moresby Clouds 26 1010 83 10000 3 86 02.08.2018 14:21
117 se Stockholm Drizzle 2 1004 87 10000 24 340 02.08.2018 14:23
118 ar Ushuaia Drizzle 6 1007 87 10000 7 360 02.08.2018 14:22
119 cl Santiago Fog 12 1014 54 3000 1 282 02.08.2018 14:23
120 in Nagpur Haze 38 1008 11 4000 15 330 02.08.2018 14:21
121 ke Nairobi Rain 23 1020 64 10000 17 80 02.08.2018 14:22
122 br Manaus Rain 25 1012 89 10000 4 40 02.08.2018 14:21
123 cn Peking Rain 14 1012 71 10000 9 122 02.08.2018 14:23
124 ar Buenos Aires Rain 20 1016 82 10000 15 40 02.08.2018 14:22
125 ck Avarua Rain 26 1016 78 10000 24 90 02.08.2018 14:22
126 is Reykjavik Rain 7 1019 76 10000 22 100 02.08.2018 14:22
127 at Wien Rain 10 1018 76 10000 28 350 02.08.2018 14:22
128 in Mumbai Smoke 33 1008 62 4000 19 280 02.08.2018 14:22